Powrót do katalogu

SL-12 R/B

AUX MOTOR

AktywnyHEO
NORAD 19755·ROCKET BODY·🇷🇺 Russia

Wystrzelony Jan 10, 1989 z Baikonur Cosmodrome

Loading…

Następne Przeloty (najbliższe 24 godziny)

TLE

ŚwieżeSource: Space-Track

Epoka: Sep 13, 2026, 13:33 UTC

1 19755U 89001G   26256.56476707 -.00000075  00000-0 -28174-3 0  9997
2 19755  65.2444 339.7458 5557952  72.4819 338.8512  4.25604415584875

Śledź SL-12 R/B w czasie rzeczywistym z AllMySat

Download on the App Store